Albuquerque, NM

8:05 PM MDT on June 25, 2017 (GMT -0600)
Albuquerque International Sunport

Weather History for KABQ - July, 2013

Change the Weather History Date:

Wednesday, July 24, 2013

  Actual Average Record
Temperature  
Mean Temperature 79 °F 78 °F  
Max Temperature 90 °F 89 °F 103 °F (1963)
Min Temperature 67 °F 67 °F 51 °F (1913)
Degree Days  
Heating Degree Days 0 0  
Month to date heating degree days 0 0  
Since 1 June heating degree days 0 4  
Since 1 July heating degree days 0 0  
Cooling Degree Days 14 13  
Month to date cooling degree days 319 323  
Year to date cooling degree days 891 723  
Since 1 June cooling degree days 774 625  
Growing Degree Days 29 (Base 50)    
Moisture  
Dew Point 53 °F    
Average Humidity 51    
Maximum Humidity 68    
Minimum Humidity 34    
Precipitation  
Precipitation T in 0.05 in 1.23 in (1991)
Month to date precipitation 1.37 1.10  
Year to date precipitation 2.07 4.30  
Snow  
Snow 0.00 in - - ()
Month to date snowfall 0.0  
Since 1 June snowfall 0.0  
Since 1 July snowfall 0.0  
Snow Depth 0.00 in    
Sea Level Pressure  
Sea Level Pressure 29.93 in    
Wind  
Wind Speed 9 mph (ESE)    
Max Wind Speed 40 mph    
Max Gust Speed 48 mph    
Visibility 10 miles    
Events Rain , Thunderstorm    
T = Trace of Precipitation, MM = Missing Value Source: NWS Daily Summary

Daily Weather History Graph

Daily Weather History Graph

Search for Another Location

Airport or City:

Trip Planner

Search our weather history database for the weather conditions in past years. The results will help you decide how hot, cold, wet, or windy it might be!

Date:

Astronomy

Jul. 24, 2013 Rise Set
Actual Time 6:10 AM MDT 8:15 PM MDT
Civil Twilight 5:41 AM MDT 8:43 PM MDT
Nautical Twilight 5:07 AM MDT 9:18 PM MDT
Astronomical Twilight 4:29 AM MDT 9:55 PM MDT
Moon 9:32 PM MDT (7/24) 8:25 AM MDT (7/24)
Length of Visible Light 15h 02m
Length of Day
14h 05m
Waning Gibbous, 94% of the Moon is Illuminated
Jul 24
Waning Gibbous
Jul 29
Last Quarter
Aug 6
New
Aug 14
First Quarter
Aug 20
Full

Hourly Weather History & Observations

Time (MDT) Temp. Heat Index Dew Point Humidity Pressure Visibility Wind Dir Wind Speed Gust Speed Precip Events Conditions
12:52 AM 78.1 °F - 50.0 °F 37% 29.85 in 10.0 mi SE 3.5 mph - N/A   Mostly Cloudy
1:52 AM 80.1 °F - 50.0 °F 35% 29.86 in 10.0 mi WSW 3.5 mph - N/A   Mostly Cloudy
2:52 AM 79.0 °F - 48.9 °F 35% 29.84 in 10.0 mi NNW 4.6 mph - N/A   Mostly Cloudy
3:52 AM 75.0 °F - 51.1 °F 43% 29.84 in 10.0 mi ESE 5.8 mph - N/A   Overcast
4:52 AM 75.9 °F - 51.1 °F 42% 29.84 in 10.0 mi ESE 5.8 mph - N/A   Overcast
5:52 AM 75.9 °F - 50.0 °F 40% 29.85 in 10.0 mi SE 4.6 mph - N/A   Overcast
6:52 AM 75.0 °F - 51.1 °F 43% 29.87 in 10.0 mi SSE 4.6 mph - N/A   Mostly Cloudy
7:52 AM 75.0 °F - 53.1 °F 46% 29.89 in 10.0 mi NW 5.8 mph - N/A   Mostly Cloudy
8:52 AM 75.9 °F - 54.0 °F 46% 29.90 in 10.0 mi NNW 3.5 mph - N/A   Mostly Cloudy
9:52 AM 79.0 °F - 54.0 °F 42% 29.90 in 10.0 mi Variable 3.5 mph - N/A   Mostly Cloudy
10:52 AM 82.0 °F 81.3 °F 54.0 °F 38% 29.91 in 10.0 mi WNW 3.5 mph - N/A   Scattered Clouds
11:52 AM 84.0 °F 82.6 °F 54.0 °F 35% 29.91 in 10.0 mi SW 5.8 mph - N/A   Mostly Cloudy
12:52 PM 88.0 °F 86.1 °F 55.0 °F 32% 29.87 in 10.0 mi Calm Calm - N/A   Scattered Clouds
1:35 PM 89.6 °F - 51.8 °F 27% 30.13 in 10.0 mi SE 17.3 mph 27.6 mph N/A Thunderstorm Thunderstorm
1:52 PM 84.0 °F - 51.1 °F 32% 29.83 in 5.0 mi SE 31.1 mph 43.7 mph N/A Thunderstorm Widespread Dust
2:52 PM 82.9 °F - 51.1 °F 33% 29.85 in 10.0 mi ESE 16.1 mph - 0.00 in Thunderstorm Thunderstorm
3:02 PM 82.4 °F - 51.8 °F 35% 30.15 in 10.0 mi SE 16.1 mph - N/A   Overcast
3:52 PM 77.0 °F - 54.0 °F 45% 29.94 in 10.0 mi SSE 19.6 mph - 0.00 in   Overcast
4:52 PM 75.0 °F - 52.0 °F 44% 29.95 in 9.0 mi East 18.4 mph 27.6 mph N/A   Overcast
5:52 PM 75.0 °F - 51.1 °F 43% 29.97 in 10.0 mi SE 19.6 mph - 0.00 in   Overcast
6:52 PM 72.0 °F - 53.1 °F 51% 30.01 in 10.0 mi East 20.7 mph - 0.00 in   Overcast
7:52 PM 69.1 °F - 54.0 °F 58% 30.02 in 10.0 mi East 17.3 mph 24.2 mph 0.00 in   Overcast
8:52 PM 72.0 °F - 55.9 °F 57% 30.00 in 10.0 mi NNE 11.5 mph - N/A   Overcast
9:52 PM 70.0 °F - 55.9 °F 61% 30.00 in 10.0 mi NNE 10.4 mph - N/A   Mostly Cloudy
10:52 PM 70.0 °F - 55.9 °F 61% 30.00 in 10.0 mi North 3.5 mph - N/A   Mostly Cloudy
11:52 PM 68.0 °F - 57.9 °F 70% 30.01 in 10.0 mi ESE 3.5 mph - N/A   Mostly Cloudy